Regional Weather Roundup
Issued by NWS Charleston, WV

Home | Current Version | Previous Version | Graphics & Text | Print | Product List | Glossary On
Versions: 1 2 3 4 5 6 7 8 9 10 11 12 13 14 15 16 17 18 19 20 21 22 23 24 25 26 27 28 29 30 31 32 33 34 35 36 37 38 39 40 41 42 43 44 45 46 47 48 49 50
000
ASUS41 KRLX 010210
RWRRLX
West Virginia Regional Weather Roundup
National Weather Service Charleston WV
900 PM EST SAT JAN 31 2015

Note: "fair" indicates few or no clouds below 12,000 feet with no
significant weather and/or obstructions to visibility.

WVZ003-010300-
Northern Panhandle of West Virginia

CITY           SKY/WX    TMP DP  RH WIND       PRES   REMARKS
WHEELING       PTCLDY    25  15  66 S8        30.23F
$$

WVZ009-010300-
Northwest West Virginia

CITY           SKY/WX    TMP DP  RH WIND       PRES   REMARKS
PARKERSBURG    CLOUDY    31  17  56 S3        30.30F
$$

WVZ006-010300-
Western West Virginia

CITY           SKY/WX    TMP DP  RH WIND       PRES   REMARKS
HUNTINGTON     CLOUDY    33  19  56 E3        30.28F
$$

WVZ015-010300-
West Central West Virginia

CITY           SKY/WX    TMP DP  RH WIND       PRES   REMARKS
CHARLESTON     CLOUDY    30  19  63 CALM      30.28S
$$

WVZ022-031-010300-
North Central West Virginia

CITY           SKY/WX    TMP DP  RH WIND       PRES   REMARKS
CLARKSBURG     PTCLDY    24  16  71 S3        30.27S
MORGANTOWN     PTCLDY    26  12  55 S5        30.26F
$$

WVZ025-035-042-045-010300-
Southern West Virginia

CITY           SKY/WX    TMP DP  RH WIND       PRES   REMARKS
BECKLEY        PTCLDY    29  10  45 SW7       30.23F
LOGAN          MOCLDY    34  12  40 CALM      30.26R
BLUEFIELD      CLEAR     31  11  43 W9        30.22F
LEWISBURG      MOCLDY    30  10  44 CALM      30.23S
$$

WVZ047-010300-
Northern Mountains of West Virginia

CITY           SKY/WX    TMP DP  RH WIND       PRES   REMARKS
ELKINS         PTCLDY    16  12  84 CALM      30.24S
$$

WVZ052-010300-
Eastern Panhandle of West Virginia

CITY           SKY/WX    TMP DP  RH WIND       PRES   REMARKS
MARTINSBURG    CLEAR     27   8  44 CALM      30.25F
PETERSBURG       N/A     31   6  34 SE3       30.24S
$$



USA.gov is the U.S. government's official web portal to all federal, state and local government web resources and services.